{"data":{"norad_id":59417,"epoch":"2026-05-24T20:26:39.388992Z","epoch_age_seconds":98038,"freshness":"FRESH","line1":"1 59417U 24064V   26144.85184478 -.00000285  00000+0 -85861-6 0  9994","line2":"2 59417  43.0035 339.1352 0000731 280.0512  80.0257 15.27575167120706","mean_motion":15.27575167,"eccentricity":7.31e-5,"inclination_deg":43.0035,"raan_deg":339.1352,"arg_perigee_deg":280.0512,"mean_anomaly_deg":80.0257,"bstar":-8.5861e-7,"rev_number":12070,"period_min":94.267046958351,"perigee_km":482.56201405696,"apogee_km":483.56512157998,"semimajor_km":6861.2005678185,"source":"CELESTRAK","updated_at":"2026-05-25T13:38:18.942900Z"}}